Location: Mars�
(42.3110°N, 3.0675°E)
Time: 02:11:38
(UTC+00:00)

Daily predictions for brighter satellites

Satellite Brightness Start Highest point End
(mag) Time Altitude Azimuth Time Altitude Azimuth Time Altitude Azimuth
CZ-4C R/B 4.4 03:25:49 16° ESE 03:26:38 17° ESE 03:29:58 10° ENE
ATLAS 3B R/B 4.3 03:30:35 24° NNE 03:32:06 26° NE 03:37:55 10° E
Lacrosse 4 Rocket 4.2 03:38:11 17° E 03:38:11 17° E 03:39:40 10° ESE
ALOS 4.2 03:51:17 10° NNE 04:02:13 - S 03:53:17 23° NE
NOSS 3-4 (A) 3.6 04:00:50 65° NE 04:00:50 65° NE 04:06:09 10° NE
NOSS 3-4 (C) 3.6 04:00:54 66° ENE 04:00:54 66° ENE 04:06:17 10° NE
NOSS 3-2 (C) 3.9 04:00:08 75° NW 04:00:56 86° WSW 04:09:35 10° SSE
Milstar 3 Cent rocket 4.1 04:00:16 27° S 04:02:03 30° SSE 04:11:26 10° ESE
CENTAUR R/B 3.1 04:01:35 67° NW 04:02:58 84° WSW 04:11:52 10° SSE
Cosmos 489 Rocket 4.5 04:12:53 67° SSW 04:12:53 67° SSW 04:18:23 10° SSE
Cosmos 1151 Rocket 4.0 04:17:01 44° E 04:17:01 44° E 04:20:46 10° SSE
ATLAS 2AS CENTAUR R/B 3.0 04:15:30 35° SSW 04:19:23 86° ESE 04:27:19 10° NE
ERS-2 4.1 04:17:31 10° SE 04:19:17 25° SE 04:19:17 25° SE
NOSS 3-2 (A) 4.5 04:28:37 42° WSW 04:28:37 42° WSW 04:36:02 10° S
Atlas Centaur 2 3.9 04:26:40 22° SSW 04:28:30 25° S 04:33:09 10° ESE
RESURS DK-1 3.8 04:26:57 13° S 04:30:16 37° ESE 04:34:07 10° NE
Lacrosse 5 1.8 04:32:03 73° N 04:32:03 73° N 04:36:45 10° NE
ATLAS CENTAUR R/B 3.2 04:32:06 20° NNE 04:32:50 21° NE 04:35:51 10° E
ADEOS 3.5 04:30:21 10° NNE 04:35:36 87° ESE 04:40:50 10° SSW
Cosmos 1328 Rocket 3.8 04:35:40 49° NNE 04:36:42 68° E 04:41:06 10° SSE
OAO 2 Rocket 4.2 04:37:06 35° SSW 04:37:43 36° S 04:42:21 10° ESE
Cosmos 2263 Rocket 3.1 04:43:11 32° NNW 04:43:11 32° NNW 04:46:48 10° N
Gbstr 26 Del rocket 3.5 04:43:34 43° NE 04:43:34 43° NE 04:47:07 10° E
SJ 16-02 2.5 04:45:52 30° N 04:45:52 30° N 04:48:14 10° NNE
Meteor 1-4 Rocket 3.8 04:46:47 32° SSE 04:46:47 32° SSE 04:48:44 10° S
USA 238 DEB 4.5 04:45:52 35° WSW 04:45:52 35° WSW 04:52:14 10° S
USA 238 4.5 04:45:56 35° WSW 04:45:56 35° WSW 04:52:21 10° S
Cosmos 1898 Rocket 3.8 04:46:04 10° S 04:51:19 68° ESE 04:56:38 10° NNE
Meteor 1-26 Rocket 4.1 04:48:59 12° NNW 04:54:23 79° W 04:59:57 10° S
FALCON 9 DEB 4.3 04:56:35 31° NNE 04:56:35 31° NNE 04:58:31 10° NE
FALCON 9 DEB 4.4 04:56:45 30° NNE 04:56:45 30° NNE 04:58:37 10° NE
FENGYUN 3A 3.8 04:55:13 10° N 05:00:26 50° WNW 05:05:37 10° SW
Cosmos 1408 Rocket 3.4 04:56:27 10° S 05:00:55 82° W 05:05:24 10° N
COSMO-SKYMED 1 2.5 05:00:13 10° SSE 05:04:33 90° ENE 05:07:59 16° NNW
Cosmos 2181 Rocket 3.9 04:59:25 10° NNW 05:05:34 64° W 05:11:35 10° S
Cosmos 1709 Rocket 4.3 04:59:39 10° SW 05:05:38 42° WNW 05:11:40 10° N
Cosmos 1937 Rocket 3.7 05:03:19 10° S 05:08:25 69° ESE 05:13:34 10° NNE
Meteor 2-3 Rocket 3.9 05:07:26 10° SSW 05:12:56 48° WNW 05:18:31 10° N
CZ-4C R/B 2.0 05:11:05 22° SW 05:14:14 64° NW 05:20:03 10° NNE
Lacrosse 4 Rocket 2.1 05:14:32 36° WSW 05:14:48 36° WSW 05:18:50 10° S
MOS 1 Rocket 4.3 05:10:24 10° SE 05:14:59 49° ENE 05:19:54 10° N
Cosmos 1689 Rocket 1.8 05:14:46 10° SSE 05:17:37 85° WSW 05:18:11 53° NNW
FALCON 9 DEB 3.7 05:18:33 36° NNW 05:18:33 36° NNW 05:21:17 10° NE
Cosmos 1943 4.1 05:17:53 27° W 05:18:17 28° WSW 05:23:00 10° SSW
CZ-4B R/B 3.0 05:14:35 10° N 05:19:05 74° WNW 05:23:26 10° SSW
SAR-Lupe-4 3.6 05:17:57 10° S 05:21:25 51° WSW 05:22:38 34° NW
Aureole 2 Rocket 3.0 05:20:05 10° S 05:22:29 40° ESE 05:24:54 10° NE
ATLAS 3B R/B 2.7 05:17:51 16° NW 05:23:38 87° SW 05:30:53 10° SSE
Cosmos 1862 3.4 05:21:40 10° S 05:25:42 81° E 05:29:46 10° N
Genesis I 3.2 05:24:54 23° WSW 05:27:01 53° NW 05:30:48 10° NNE
YAOGAN 6 3.8 05:26:23 10° NNE 05:29:44 43° E 05:33:03 10° S
Cosmos 858 Rocket 4.4 05:27:30 10° SSW 05:32:42 74° WNW 05:37:58 10° NNE
deb Chang Zheng 4 4.2 05:28:52 10° N 05:32:45 32° WNW 05:36:37 10° SW
ALOS 3.6 05:29:14 10° NNW 05:31:45 21° NW 05:31:45 21° NW
Cosmos 2327 Rocket 4.5 05:28:01 10° S 05:34:06 85° E 05:40:13 10° N
Cosmos 990 Rocket 4.2 05:29:06 10° SW 05:34:06 45° WNW 05:39:08 10° N
Cosmos 2074 Rocket 4.0 05:29:23 10° SSW 05:35:31 62° W 05:41:41 10° N
PSLV R/B 3.8 05:34:45 10° NNE 05:38:37 79° ESE 05:42:22 10° S
ASTRO F (AKARI) 4.1 05:37:27 10° N 05:40:33 70° WNW 05:43:41 10° SSW
BREEZE M DEB (TANK) 3.1 05:31:33 10° SW 05:41:09 78° SSE 05:44:11 10° ENE
Cosmos 405 Rocket 2.5 05:37:52 10° SSW 05:41:32 71° W 05:45:17 10° N
EO 1 Delta rocket 3.9 05:40:40 10° S 05:45:49 67° W 05:50:26 10° NNW
Cosmos 1812 2.6 05:44:29 10° NNW 05:48:18 68° W 05:52:07 10° S
Cosmos 2228 Rocket 3.0 05:46:28 10° NNW 05:50:52 69° W 05:55:12 10° S
Cosmos 1515 Rocket 4.3 05:47:19 10° NNW 05:51:17 32° W 05:55:14 10° SSW
DMSP B5D1-3 4.5 05:47:21 10° S 05:52:29 79° WSW 05:57:40 10° NNW
SL-4 R/B 3.5 05:50:37 13° NW 05:52:53 20° N 05:55:43 10° NE
CENTAUR R/B 4.4 05:48:50 15° WNW 05:52:55 21° WSW 05:58:58 10° SSW
Cosmos 2184 Rocket 4.2 05:47:02 10° SSW 05:53:05 48° WNW 05:59:15 10° N
GPS 2-04 Rocket1 4.2 05:50:40 10° WSW 05:53:55 26° S 05:57:07 10° SE
Cosmos 1782 4.1 05:52:14 15° NW 05:54:08 21° W 05:57:10 10° SW
ERS-2 4.2 05:53:22 10° WSW 05:53:52 11° WSW 05:53:52 11° WSW
USA 234 3.4 05:53:01 10° NE 05:59:35 79° SE 06:06:08 10° SW
Cosmos 1844 Rocket 3.0 05:54:27 10° SW 05:59:48 43° WNW 06:05:13 10° NNE
Spot 2 4.5 05:55:53 10° N 06:01:01 69° WNW 06:06:01 10° SSW
COSMOS 2455 2.8 06:01:53 10° SW 06:07:54 77° WNW 06:13:58 10° NNE
Cosmos 1707 Rocket 3.9 06:03:35 10° N 06:07:54 67° E 06:12:12 10° SSE
RESURS DK-1 3.6 06:05:11 10° WSW 06:08:25 21° NW 06:11:39 10° N
BREEZE-M (TANK) 3.6 06:01:09 10° SW 06:09:50 59° SSE 06:12:39 10° ENE
MOS 1-B 4.3 06:04:09 10° NNE 06:10:00 81° WNW 06:15:47 10° SSW
ATLAS 2AS CENTAUR R/B 3.8 06:04:29 10° W 06:11:18 30° NW 06:18:01 10° NNE
ATLAS CENTAUR R/B 1.9 06:08:18 10° NW 06:11:48 37° WSW 06:15:29 10° S
BREEZE-M DEB 3.5 06:02:57 10° WNW 06:12:01 70° SW 06:14:57 10° SE
Cosmos 1500 Rocket 4.4 06:09:15 10° SW 06:12:55 26° WNW 06:16:35 10° NNW
NOAA 6 4.0 06:08:00 10° N 06:13:05 66° WNW 06:18:08 10° SSW
Cosmos 1844 4.0 06:08:31 10° SW 06:13:44 41° WNW 06:19:00 10° NNE
Lacrosse 5 3.2 06:11:20 10° WNW 06:15:20 23° NNW 06:19:21 10° NNE
H-2A R/B 3.7 06:12:12 10° N 06:15:34 28° WNW 06:18:53 10° SW
Atlas Centaur 2 3.9 06:12:16 10° WSW 06:16:47 22° SSW 06:20:38 10° SE
Cosmos 372 Rocket 4.0 06:12:08 10° SSW 06:17:08 58° WNW 06:22:10 10° NNE
CZ-4B DEB 4.2 06:12:52 10° N 06:18:14 59° WNW 06:23:36 10° SSW
Cosmos 1437 Rocket 2.9 06:14:47 10° NNW 06:18:26 48° W 06:22:04 10° S
Okean O Rocket 1.7 06:17:20 10° NNE 06:21:49 89° ESE 06:26:16 10° SSW
USA 81 4.1 06:17:54 10° S 06:23:10 84° W 06:28:28 10° N
Cosmos 1242 Rocket 4.2 06:20:03 10° N 06:23:26 35° ENE 06:26:49 10° SE
PAYLOAD B 4.2 06:19:14 10° N 06:24:42 64° WNW 06:30:06 10° SSW
SMAP 3.0 06:20:52 10° N 06:25:31 74° WNW 06:30:09 10° SSW
